timestamp,wind_dir_avg,wind_spd_avg,wind_spd_max_dir,wind_spd_gust,battery_voltage,lat,long
2024-01-21 00:04:00+00:00,3.0,5.04,5.0,5.7,12.25,47.59359,-54.27349
2024-01-21 00:14:00+00:00,6.0,4.75,5.0,5.45,12.25,47.59359,-54.27349
2024-01-21 00:24:00+00:00,10.0,4.46,16.0,5.74,12.25,47.59359,-54.27349
2024-01-21 00:34:00+00:00,6.0,4.96,5.0,6.34,12.25,47.59359,-54.27349
2024-01-21 00:44:00+00:00,10.0,5.01,12.0,5.78,12.25,47.59359,-54.27349
2024-01-21 00:54:00+00:00,14.0,5.08,9.0,5.91,12.25,47.59359,-54.27349
2024-01-21 01:04:00+00:00,5.0,4.74,4.0,5.71,12.25,47.59359,-54.27349
2024-01-21 01:14:00+00:00,355.0,4.93,356.0,5.44,12.17,47.59359,-54.27349
2024-01-21 01:24:00+00:00,9.0,4.46,5.0,5.09,12.17,47.59359,-54.27349
2024-01-21 01:34:00+00:00,24.0,4.76,26.0,5.16,12.17,47.59359,-54.27349
2024-01-21 01:44:00+00:00,23.0,4.71,33.0,5.43,12.17,47.59359,-54.27349
2024-01-21 01:54:00+00:00,16.0,4.22,28.0,5.28,12.17,47.59359,-54.27349
2024-01-21 02:04:00+00:00,6.0,4.17,8.0,5.2,12.17,47.59359,-54.27349
2024-01-21 02:14:00+00:00,351.0,4.28,340.0,4.55,12.17,47.59359,-54.27349
2024-01-21 02:24:00+00:00,354.0,4.24,359.0,4.68,12.17,47.59359,-54.27349
2024-01-21 02:34:00+00:00,357.0,4.13,353.0,4.7,12.17,47.59359,-54.27349
2024-01-21 02:44:00+00:00,357.0,4.44,357.0,4.96,12.17,47.59359,-54.27349
2024-01-21 02:54:00+00:00,6.0,4.29,13.0,4.64,12.17,47.59359,-54.27349
2024-01-21 03:04:00+00:00,352.0,3.8,356.0,4.58,12.17,47.59359,-54.27349
2024-01-21 03:14:00+00:00,337.0,3.94,313.0,5.63,12.09,47.59359,-54.27349
2024-01-21 03:24:00+00:00,335.0,5.02,322.0,6.37,12.09,47.59359,-54.27349
2024-01-21 03:34:00+00:00,355.0,4.47,359.0,4.93,12.09,47.59359,-54.27349
2024-01-21 03:44:00+00:00,352.0,4.82,0.0,5.45,12.09,47.59359,-54.27349
2024-01-21 03:54:00+00:00,356.0,4.76,357.0,5.39,12.09,47.59359,-54.27349
2024-01-21 04:04:00+00:00,1.0,5.27,1.0,6.1,12.09,47.59359,-54.27349
2024-01-21 04:14:01+00:00,3.0,4.51,11.0,5.52,12.09,47.59359,-54.27349
2024-01-21 04:24:01+00:00,5.0,4.49,3.0,5.2,12.09,47.59359,-54.27349
2024-01-21 04:34:01+00:00,11.0,4.05,12.0,4.58,12.09,47.59359,-54.27349
2024-01-21 04:44:01+00:00,5.0,4.16,0.0,4.76,12.09,47.59359,-54.27349
2024-01-21 04:54:01+00:00,5.0,4.16,1.0,4.7,12.09,47.59359,-54.27349
2024-01-21 05:04:01+00:00,4.0,4.03,0.0,4.92,12.09,47.59359,-54.27349
2024-01-21 05:14:00+00:00,6.0,3.52,0.0,4.19,12.01,47.59359,-54.27349
2024-01-21 05:24:00+00:00,13.0,3.59,12.0,4.51,12.01,47.59359,-54.27349
2024-01-21 05:34:00+00:00,8.0,4.16,5.0,4.89,12.01,47.59359,-54.27349
2024-01-21 05:44:00+00:00,13.0,4.28,6.0,4.76,12.01,47.59359,-54.27349
2024-01-21 05:54:00+00:00,11.0,4.19,13.0,4.76,12.01,47.59359,-54.27349
2024-01-21 06:04:00+00:00,10.0,3.4,15.0,3.96,12.01,47.59359,-54.27349
2024-01-21 06:14:00+00:00,3.0,3.56,0.0,4.45,11.93,47.59359,-54.27349
2024-01-21 06:24:00+00:00,0.0,3.47,0.0,4.23,11.93,47.59359,-54.27349
2024-01-21 06:34:00+00:00,33.0,3.37,39.0,4.07,11.93,47.59359,-54.27349
2024-01-21 06:44:00+00:00,10.0,2.68,8.0,3.32,11.93,47.59359,-54.27349
2024-01-21 06:54:00+00:00,17.0,2.7,23.0,3.42,11.93,47.59359,-54.27349
2024-01-21 07:04:00+00:00,25.0,2.9,30.0,3.82,11.93,47.59359,-54.27349
2024-01-21 07:14:00+00:00,41.0,4.2,44.0,5.84,11.93,47.59359,-54.27349
2024-01-21 07:24:00+00:00,46.0,4.01,46.0,4.68,11.93,47.59359,-54.27349
2024-01-21 07:34:00+00:00,52.0,3.86,42.0,4.45,11.93,47.59359,-54.27349
2024-01-21 07:44:00+00:00,64.0,4.35,64.0,4.7,11.93,47.59359,-54.27349
2024-01-21 07:54:00+00:00,51.0,4.0,50.0,4.88,11.93,47.59359,-54.27349
2024-01-21 08:04:00+00:00,47.0,4.05,52.0,4.62,11.93,47.59359,-54.27349
2024-01-21 08:14:00+00:00,46.0,3.66,51.0,4.64,11.86,47.59359,-54.27349
2024-01-21 08:24:00+00:00,56.0,3.87,56.0,4.67,11.86,47.59359,-54.27349
2024-01-21 08:34:00+00:00,58.0,3.49,58.0,4.36,11.86,47.59359,-54.27349
2024-01-21 08:44:00+00:00,55.0,3.08,60.0,4.02,11.86,47.59359,-54.27349
2024-01-21 08:54:00+00:00,59.0,3.58,57.0,4.32,11.86,47.59359,-54.27349
2024-01-21 09:04:00+00:00,56.0,3.69,56.0,4.23,11.86,47.59359,-54.27349
2024-01-21 09:14:00+00:00,54.0,4.13,53.0,4.56,11.86,47.59359,-54.27349
2024-01-21 09:24:00+00:00,62.0,4.11,60.0,4.59,11.86,47.59359,-54.27349
2024-01-21 09:34:00+00:00,68.0,3.86,70.0,4.12,11.86,47.59359,-54.27349
2024-01-21 09:44:00+00:00,53.0,3.86,57.0,4.29,11.86,47.59359,-54.27349
2024-01-21 09:54:00+00:00,54.0,4.61,57.0,5.0,11.86,47.59359,-54.27349
2024-01-21 10:04:00+00:00,59.0,4.57,56.0,5.03,11.86,47.59359,-54.27349
2024-01-21 10:14:00+00:00,55.0,4.64,53.0,5.18,11.86,47.59359,-54.27349
2024-01-21 10:24:00+00:00,57.0,4.25,55.0,4.76,11.86,47.59359,-54.27349
2024-01-21 10:34:00+00:00,63.0,3.89,56.0,4.81,11.86,47.59359,-54.27349
2024-01-21 10:44:00+00:00,66.0,3.95,64.0,4.44,11.86,47.59359,-54.27349
2024-01-21 10:54:00+00:00,54.0,4.74,53.0,5.47,11.86,47.59359,-54.27349
2024-01-21 11:04:00+00:00,58.0,4.33,57.0,4.84,11.86,47.59359,-54.27349
2024-01-21 11:14:00+00:00,64.0,3.47,70.0,4.13,11.86,47.59359,-54.27349
2024-01-21 11:24:00+00:00,71.0,2.67,63.0,3.92,11.86,47.59359,-54.27349
2024-01-21 11:34:00+00:00,87.0,2.45,98.0,3.22,11.86,47.59359,-54.27349
2024-01-21 11:44:00+00:00,76.0,2.26,71.0,3.2,11.86,47.59359,-54.27349
2024-01-21 11:54:00+00:00,81.0,1.76,91.0,2.49,11.86,47.59359,-54.27349
2024-01-21 12:04:00+00:00,87.0,2.24,89.0,2.78,11.86,47.59359,-54.27349
2024-01-21 12:14:00+00:00,89.0,1.59,106.0,2.44,12.33,47.59359,-54.27349
2024-01-21 12:24:00+00:00,101.0,1.85,104.0,2.46,12.33,47.59359,-54.27349
2024-01-21 12:34:00+00:00,82.0,1.52,83.0,3.34,12.33,47.59359,-54.27349
2024-01-21 12:44:00+00:00,70.0,2.49,71.0,3.42,12.33,47.59359,-54.27349
2024-01-21 12:54:00+00:00,65.0,2.44,63.0,3.35,12.33,47.59359,-54.27349
2024-01-21 13:04:00+00:00,67.0,2.83,63.0,3.64,12.33,47.59359,-54.27349
2024-01-21 13:14:00+00:00,67.0,3.01,66.0,3.91,13.21,47.59359,-54.27349
2024-01-21 13:24:00+00:00,71.0,2.8,77.0,3.59,13.21,47.59359,-54.27349
2024-01-21 13:34:00+00:00,71.0,2.38,58.0,3.56,13.21,47.59359,-54.27349
2024-01-21 13:44:00+00:00,64.0,2.65,62.0,3.08,13.21,47.59359,-54.27349
2024-01-21 13:54:00+00:00,68.0,2.67,66.0,3.57,13.21,47.59359,-54.27349
2024-01-21 14:04:00+00:00,124.0,3.69,124.0,4.21,13.21,47.59359,-54.27349
2024-01-21 14:14:00+00:00,113.0,2.63,110.0,3.16,13.53,47.59359,-54.27349
2024-01-21 14:24:00+00:00,123.0,2.44,127.0,3.04,13.53,47.59359,-54.27349
2024-01-21 14:34:00+00:00,137.0,1.64,152.0,2.22,13.53,47.59359,-54.27349
2024-01-21 14:44:00+00:00,146.0,2.09,140.0,2.4,13.53,47.59359,-54.27349
2024-01-21 14:54:00+00:00,148.0,3.18,157.0,4.46,13.53,47.59359,-54.27349
2024-01-21 15:04:00+00:00,124.0,3.2,125.0,3.72,13.53,47.59359,-54.27349
2024-01-21 15:14:00+00:00,116.0,2.75,133.0,3.5,14.4,47.59359,-54.27349
2024-01-21 15:24:00+00:00,126.0,3.21,127.0,3.78,14.4,47.59359,-54.27349
2024-01-21 15:34:00+00:00,125.0,2.33,129.0,2.66,14.4,47.59359,-54.27349
2024-01-21 15:44:00+00:00,66.0,2.25,66.0,2.85,14.4,47.59359,-54.27349
2024-01-21 15:54:00+00:00,72.0,2.88,73.0,3.75,14.4,47.59359,-54.27349
2024-01-21 16:04:00+00:00,60.0,3.08,53.0,3.5,14.4,47.59359,-54.27349
2024-01-21 16:14:00+00:00,38.0,3.21,38.0,3.86,14.0,47.59359,-54.27349
2024-01-21 16:24:00+00:00,55.0,3.69,52.0,4.31,14.0,47.59359,-54.27349
2024-01-21 16:34:00+00:00,57.0,3.87,53.0,4.59,14.0,47.59359,-54.27349
2024-01-21 16:44:00+00:00,46.0,5.11,52.0,5.84,14.0,47.59359,-54.27349
2024-01-21 16:54:00+00:00,36.0,4.6,38.0,5.11,14.0,47.59359,-54.27349
2024-01-21 17:04:00+00:00,40.0,3.31,38.0,3.84,14.0,47.59359,-54.27349
2024-01-21 17:14:00+00:00,41.0,4.71,42.0,5.27,13.92,47.59359,-54.27349
2024-01-21 17:24:00+00:00,48.0,4.64,40.0,5.41,13.92,47.59359,-54.27349
2024-01-21 17:34:00+00:00,48.0,4.64,53.0,5.36,13.92,47.59359,-54.27349
2024-01-21 17:44:00+00:00,47.0,5.46,46.0,6.14,13.92,47.59359,-54.27349
2024-01-21 17:54:00+00:00,49.0,4.81,48.0,5.35,13.92,47.59359,-54.27349
2024-01-21 18:04:00+00:00,41.0,6.67,43.0,7.17,13.92,47.59359,-54.27349
2024-01-21 18:14:00+00:00,46.0,4.34,44.0,4.7,14.48,47.59359,-54.27349
2024-01-21 18:24:00+00:00,62.0,4.2,56.0,4.83,14.48,47.59359,-54.27349
2024-01-21 18:34:00+00:00,71.0,4.09,68.0,5.44,14.48,47.59359,-54.27349
2024-01-21 18:44:00+00:00,71.0,5.17,69.0,5.78,14.48,47.59359,-54.27349
2024-01-21 18:54:00+00:00,71.0,4.17,66.0,5.03,14.48,47.59359,-54.27349
2024-01-21 19:04:00+00:00,80.0,4.08,73.0,5.65,14.48,47.59359,-54.27349
2024-01-21 19:14:01+00:00,77.0,3.84,95.0,5.34,14.32,47.59359,-54.27349
2024-01-21 19:24:01+00:00,86.0,2.6,89.0,3.43,14.32,47.59359,-54.27349
2024-01-21 19:34:01+00:00,116.0,2.63,124.0,3.95,14.32,47.59359,-54.27349
2024-01-21 19:44:01+00:00,95.0,1.9,91.0,3.01,14.32,47.59359,-54.27349
2024-01-21 19:54:01+00:00,95.0,1.69,108.0,2.88,14.32,47.59359,-54.27349
2024-01-21 20:04:01+00:00,90.0,2.16,108.0,3.54,14.32,47.59359,-54.27349
2024-01-21 20:14:00+00:00,88.0,1.83,101.0,2.5,12.57,47.59359,-54.27349
2024-01-21 20:24:00+00:00,78.0,1.79,72.0,2.51,12.57,47.59359,-54.27349
2024-01-21 20:34:00+00:00,74.0,3.08,73.0,3.53,12.57,47.59359,-54.27349
2024-01-21 20:44:00+00:00,91.0,1.6,108.0,2.38,12.57,47.59359,-54.27349
2024-01-21 20:54:00+00:00,103.0,2.29,111.0,3.08,12.57,47.59359,-54.27349
2024-01-21 21:04:00+00:00,134.0,1.7,136.0,2.87,12.57,47.59359,-54.27349
2024-01-21 21:14:00+00:00,208.0,2.26,209.0,2.68,12.33,47.59359,-54.27349
2024-01-21 21:24:00+00:00,154.0,0.58,139.0,1.04,12.33,47.59359,-54.27349
2024-01-21 21:34:00+00:00,12.0,0.09,75.0,0.46,12.33,47.59359,-54.27349
2024-01-21 21:44:00+00:00,35.0,1.34,30.0,1.53,12.33,47.59359,-54.27349
2024-01-21 21:54:00+00:00,39.0,2.03,35.0,2.28,12.33,47.59359,-54.27349
2024-01-21 22:04:00+00:00,43.0,1.98,44.0,2.6,12.33,47.59359,-54.27349
2024-01-21 22:14:00+00:00,31.0,2.99,40.0,3.98,12.33,47.59359,-54.27349
2024-01-21 22:24:00+00:00,32.0,5.79,32.0,6.36,12.33,47.59359,-54.27349
2024-01-21 22:34:00+00:00,41.0,5.98,40.0,7.01,12.33,47.59359,-54.27349
2024-01-21 22:44:00+00:00,34.0,5.91,35.0,6.51,12.33,47.59359,-54.27349
2024-01-21 22:54:00+00:00,46.0,4.83,50.0,5.5,12.33,47.59359,-54.27349
2024-01-21 23:04:00+00:00,40.0,5.88,39.0,6.82,12.33,47.59359,-54.27349
2024-01-21 23:14:00+00:00,34.0,6.75,31.0,7.7,12.33,47.59359,-54.27349
2024-01-21 23:24:00+00:00,27.0,6.73,29.0,7.22,12.33,47.59359,-54.27349
2024-01-21 23:34:00+00:00,16.0,5.68,18.0,6.51,12.33,47.59359,-54.27349
2024-01-21 23:44:00+00:00,19.0,6.11,18.0,7.07,12.33,47.59359,-54.27349
2024-01-21 23:54:00+00:00,20.0,6.17,20.0,7.03,12.33,47.59359,-54.27349
